Location: Rio Negrinho
(26.2394°S, 49.4999°W)
Time: 03:41:37
(UTC+00:00)

Okean-O - Visible Passes

Search period start: 27 September 2020 00:00
Search period end: 07 October 2020 00:00
Orbit: 639 x 640 km, 98.2° (Epoch: 26 September)

Date Brightness Start Highest point End Pass type
(mag) Time Alt. Az. Time Alt. Az. Time Alt. Az.
27 Sep 3.9 22:58:11 10° S 23:02:24 41° WSW 23:06:34 10° NW visible
28 Sep 3.8 21:45:49 10° SE 21:49:20 22° E 21:52:49 10° NNE visible
28 Sep 5.1 23:22:11 10° SSW 23:25:37 22° WSW 23:29:00 10° WNW visible
29 Sep 2.9 22:08:28 10° SSE 22:12:44 44° E 22:16:58 10° N visible
29 Sep 5.9 23:47:16 10° SW 23:48:44 11° WSW 23:50:12 10° W visible
30 Sep 2.6 22:31:35 10° SSE 22:36:06 89° ENE 22:40:31 10° NNW visible
01 Oct 3.7 22:55:05 10° S 22:59:22 46° WSW 23:03:36 10° NNW visible
02 Oct 3.9 21:42:56 10° SE 21:46:17 20° E 21:49:34 10° NE visible
02 Oct 4.9 23:19:00 10° SSW 23:22:35 24° WSW 23:26:08 10° NW visible
03 Oct 3.0 22:05:29 10° SSE 22:09:41 39° E 22:13:50 10° N visible
03 Oct 5.8 23:43:47 10° SW 23:45:44 13° WSW 23:47:41 10° W visible
04 Oct 2.5 22:28:33 10° SSE 22:33:03 80° ENE 22:37:29 10° N visible
05 Oct 3.5 22:51:59 10° S 22:56:20 51° WSW 23:00:38 10° NNW visible
06 Oct 4.0 21:40:05 10° SE 21:43:12 18° E 21:46:17 10° NE visible
06 Oct 4.8 23:15:50 10° SSW 23:19:34 26° WSW 23:23:16 10° NW visible
